FENGYUN 1C DEB, 35217

Orbit data source: Space-Track

FENGYUN 1C DEB, 35217 is space debris in SSO originally from a launch on Mon, 10 May 1999 UTC launched from the Taiyaun Space Center, China (TSC). Fengyun 1C debris stems from the Chinese weather satellite Fengyun-1C, which was intentionally destroyed by a Chinese anti-satellite missile in 2007. This event dramatically increased the amount of space debris, with thousands of trackable fragments posing hazards to satellites and human spaceflight. The Fengyun 1C debris cloud has become a focal point in discussions about space sustainability and the need for international regulations to prevent the creation of new debris.

Loading next visibility...
Identifier
35217, 1999-025DPZ
Orbit
SSO
Country
Flag of CNCN / PRC
Related business
Manufacturer
Unknown
Mission
Spacecraft
Bus & Motor
Unknown
Mass
Unknown
Launch date (UTC)
1999-05-10 (27 years ago)
Launch vehicle
Unknown
Launch site
Taiyaun Space Center, China (TSC)
Object type
Payload
Rocket body
Debris
Shape & HBR
Unknown shape, 0.1 m
Radar Cross Section
Small (<0.1 m²)

Expand to show TLE details & history
Last TLE update: 5 days ago

TLE from 5 days ago
0 FENGYUN 1C DEB
1 35217U 99025DPZ 26224.16070947  .00001192  00000-0  12813-2 0  9993
2 35217 101.8784 194.7677 0299586  93.6738 269.8700 13.58447485645102
Epoch: 2026-08-12T03:51Z
TLE epoch observation values (Epoch: 2026-08-12T03:51:25.298Z)
Latitude
-0°
Longitude
176.29367°
Altitude
1,051.217 km
Speed
7.323 km/s
True Right ascension
12h 59m 04s
True Declination
0° 00' 00"
Sunlit
Object was in daylight at epoch
Visualization orbit readout
Latitude
Unknown
Longitude
Unknown
Altitude
Unknown
Speed
Unknown
Apparent Right ascension
Unknown
Apparent Declination
Unknown
Sunlit
N/A
Visualization observer readout
Local Sidereal Time
17:07:31
Azimuth
Unknown
Elevation
Unknown
Doppler factor
Unknown
Orbital elements
Apogee altitude
1,260.95 km
Perigee altitude
816.551 km
Semi-major axis
7,416.888 km
Eccentricity
0.02996
Inclination
101.8784°
RAAN
194.7677°
Arg. of periapsis
93.6738°
True anomaly
266.43935°
Mean anomaly
269.87°
Eccentric anomaly
268.15439°
Mean motion
3.3979 °/min
Orbital period
105.95 mins
BSTAR
0.0012813
Loading maneuver chart data...
Computing Atmospheric mass density...
Loading historical data...
Loading historical data...
Loading historical data...
Loading historical data...
Loading historical data...
Loading historical data...
Loading historical data...

Documentation

Showing up to 5 results
|